,,Stat6,,Stat2,,Stat8,,Stat9,,Stat10,,Wind1,,Wind1,
time,status,PA1M_AVG,status,PR1M_SUM,status,RH1M_AVG,status,SR1M_AVG,status,TA1M_AVG,status,W1dAve1m,status,W1sAve1m,
2006-08-16, 07:11:00,VALID,916.26,VALID,0,VALID,94.0931,VALID,50.0051,VALID,20.0097,VALID,18,VALID,2.33646,
2006-08-16, 07:12:00,VALID,916.247,VALID,0,VALID,93.4057,VALID,50.6029,VALID,20.1566,VALID,22,VALID,1.95033,
2006-08-16, 07:13:00,VALID,916.251,VALID,0,VALID,92.8869,VALID,51.6896,VALID,20.2984,VALID,24,VALID,1.77763,
2006-08-16, 07:14:00,VALID,916.269,VALID,0,VALID,92.5041,VALID,52.9462,VALID,20.4044,VALID,17,VALID,1.38205,
2006-08-16, 07:15:00,VALID,916.291,VALID,0,VALID,92.2269,VALID,53.7104,VALID,20.5045,VALID,31,VALID,1.2381,
2006-08-16, 07:16:00,VALID,916.3,VALID,0,VALID,91.7386,VALID,54.1519,VALID,20.5946,VALID,28,VALID,2.00316,
2006-08-16, 07:17:00,VALID,916.33,VALID,0,VALID,91.6585,VALID,54.5424,VALID,20.6621,VALID,19,VALID,1.37589,
2006-08-16, 07:18:00,VALID,916.353,VALID,0,VALID,91.3572,VALID,55.0519,VALID,20.71,VALID,16,VALID,1.62667,
2006-08-16, 07:19:00,VALID,916.379,VALID,0,VALID,91.0596,VALID,55.5952,VALID,20.7453,VALID,10,VALID,1.39717,
2006-08-16, 07:20:00,VALID,916.391,VALID,0,VALID,91.0329,VALID,55.9179,VALID,20.82,VALID,29,VALID,1.20028,
2006-08-16, 07:21:00,VALID,916.402,VALID,0,VALID,90.8968,VALID,56.1896,VALID,20.8908,VALID,33,VALID,1.21131,
2006-08-16, 07:22:00,VALID,916.411,VALID,0,VALID,90.2127,VALID,56.682,VALID,20.9817,VALID,26,VALID,1.62027,
2006-08-16, 07:23:00,VALID,916.422,VALID,0,VALID,89.9368,VALID,57.1235,VALID,21.0589,VALID,16,VALID,1.41988,
2006-08-16, 07:24:00,VALID,916.436,VALID,0,VALID,89.9139,VALID,57.6329,VALID,21.1262,VALID,29,VALID,0.902778,
2006-08-16, 07:25:00,VALID,916.43,VALID,0,VALID,89.526,VALID,58.0914,VALID,21.2144,VALID,23,VALID,1.29215,
2006-08-16, 07:26:00,VALID,916.471,VALID,0,VALID,88.992,VALID,56.3933,VALID,21.2723,VALID,24,VALID,1.53553,
2006-08-16, 07:27:00,VALID,916.493,VALID,0,VALID,89.0047,VALID,48.1237,VALID,21.3269,VALID,14,VALID,1.17653,
2006-08-16, 07:28:00,VALID,916.523,VALID,0,VALID,89.2933,VALID,60.4857,VALID,21.392,VALID,3,VALID,0.842478,
2006-08-16, 07:29:00,VALID,916.555,VALID,0,VALID,88.5075,VALID,61.1819,VALID,21.4631,VALID,19,VALID,1.17915,
2006-08-16, 07:30:00,VALID,916.565,VALID,0,VALID,88.2913,VALID,61.8612,VALID,21.4919,VALID,12,VALID,0.954687,
2006-08-16, 07:31:00,VALID,916.589,VALID,0,VALID,88.5673,VALID,62.4046,VALID,21.5527,VALID,16,VALID,0.528343,
2006-08-16, 07:32:00,VALID,916.591,VALID,0,VALID,88.772,VALID,62.9479,VALID,21.666,VALID,12,VALID,0.27782,
2006-08-16, 07:33:00,VALID,916.59,VALID,0,VALID,88.1006,VALID,63.5083,VALID,21.7747,VALID,9,VALID,0.472556,
2006-08-16, 07:34:00,VALID,916.59,VALID,0,VALID,87.4215,VALID,63.8819,VALID,21.8877,VALID,17,VALID,0.663132,
2006-08-16, 07:35:00,VALID,916.599,VALID,0,VALID,86.8035,VALID,64.2894,VALID,21.9714,VALID,16,VALID,0.730469,
2006-08-16, 07:36:00,VALID,916.61,VALID,0,VALID,86.9739,VALID,64.629,VALID,22.0489,VALID,342,VALID,0.27397,
2006-08-16, 07:37:00,VALID,916.622,VALID,0,VALID,85.7405,VALID,65.1385,VALID,22.1519,VALID,14,VALID,0.698661,
2006-08-16, 07:38:00,VALID,916.635,VALID,0,VALID,85.0831,VALID,65.9026,VALID,22.1554,VALID,28,VALID,1.60584,
2006-08-16, 07:39:00,VALID,916.665,VALID,0,VALID,85.8918,VALID,66.7177,VALID,22.1272,VALID,46,VALID,0.96224,
2006-08-16, 07:40:00,VALID,916.676,VALID,0,VALID,85.6998,VALID,67.3799,VALID,22.09,VALID,46,VALID,0.779848,
2006-08-16, 07:41:00,VALID,916.683,VALID,0,VALID,86.2847,VALID,67.8554,VALID,22.1088,VALID,55,VALID,0.578307,
2006-08-16, 07:42:00,VALID,916.683,VALID,0,VALID,86.3432,VALID,68.4667,VALID,22.2001,VALID,56,VALID,0.621185,
2006-08-16, 07:43:00,VALID,916.687,VALID,0,VALID,85.5612,VALID,69.2818,VALID,22.2348,VALID,39,VALID,1.04288,
2006-08-16, 07:44:00,VALID,916.686,VALID,0,VALID,85.49,VALID,70.1648,VALID,22.2609,VALID,52,VALID,0.671113,
2006-08-16, 07:45:00,VALID,916.704,VALID,0,VALID,85.7646,VALID,70.8101,VALID,22.3152,VALID,53,VALID,0.586124,
2006-08-16, 07:46:00,VALID,916.727,VALID,0,VALID,85.8219,VALID,71.6421,VALID,22.4511,VALID,38,VALID,0.280523,
2006-08-16, 07:47:00,VALID,916.749,VALID,0,VALID,84.7931,VALID,73.2044,VALID,22.5814,VALID,12,VALID,0.399182,
2006-08-16, 07:48:00,VALID,916.766,VALID,0,VALID,84.8402,VALID,75.2421,VALID,22.7429,VALID,6,VALID,0.316679,
2006-08-16, 07:49:00,VALID,916.789,VALID,0,VALID,83.7046,VALID,77.993,VALID,22.9009,VALID,14,VALID,0.466206,
2006-08-16, 07:50:00,VALID,916.816,VALID,0,VALID,82.8984,VALID,81.1514,VALID,23.0369,VALID,7,VALID,0.607031,
2006-08-16, 07:51:00,VALID,916.846,VALID,0,VALID,82.3377,VALID,85.6683,VALID,23.1003,VALID,28,VALID,0.735305,
2006-08-16, 07:52:00,VALID,916.86,VALID,0,VALID,82.7471,VALID,90.5927,VALID,23.1517,VALID,29,VALID,0.338715,
2006-08-16, 07:53:00,VALID,916.868,VALID,0,VALID,82.4636,VALID,96.3492,VALID,23.2454,VALID,23,VALID,0.618786,
2006-08-16, 07:54:00,VALID,916.878,VALID,0,VALID,82.0859,VALID,102.31,VALID,23.317,VALID,53,VALID,0.502431,
2006-08-16, 07:55:00,VALID,916.888,VALID,0,VALID,82.283,VALID,109.713,VALID,23.3875,VALID,54,VALID,0.198475,
2006-08-16, 07:56:00,VALID,916.9,VALID,0,VALID,81.9269,VALID,119.121,VALID,23.4697,VALID,40,VALID,0.693638,
2006-08-16, 07:57:00,VALID,916.915,VALID,0,VALID,80.6909,VALID,126.439,VALID,23.4327,VALID,28,VALID,1.60975,
2006-08-16, 07:58:00,VALID,916.913,VALID,0,VALID,81.3941,VALID,103.108,VALID,23.2419,VALID,19,VALID,1.16352,
2006-08-16, 07:59:00,VALID,916.899,VALID,0,VALID,82.4661,VALID,77.8571,VALID,23.125,VALID,34,VALID,1.47656,
2006-08-16, 08:00:00,VALID,916.888,VALID,0,VALID,82.8794,VALID,75.8194,VALID,22.989,VALID,32,VALID,1.09691,
2006-08-16, 08:01:00,VALID,916.88,VALID,0,VALID,83.875,VALID,76.2779,VALID,22.9529,VALID,52,VALID,0.762847,
2006-08-16, 08:02:00,VALID,916.882,VALID,0,VALID,83.65,VALID,76.8043,VALID,23.0152,VALID,30,VALID,0.688542,
2006-08-16, 08:03:00,VALID,916.886,VALID,0,VALID,83.5164,VALID,77.2118,VALID,23.1212,VALID,11,VALID,0.957386,
2006-08-16, 08:04:00,VALID,916.896,VALID,0,VALID,82.3517,VALID,77.3816,VALID,23.1467,VALID,360,VALID,1.54869,
2006-08-16, 08:05:00,VALID,916.896,VALID,0,VALID,82.1151,VALID,77.8232,VALID,23.0275,VALID,8,VALID,2.20721,
2006-08-16, 08:06:00,VALID,916.916,VALID,0,VALID,83.0447,VALID,78.1458,VALID,22.8525,VALID,19,VALID,2.07177,
2006-08-16, 08:07:00,VALID,916.937,VALID,0,VALID,83.2532,VALID,78.4514,VALID,22.7777,VALID,38,VALID,1.59635,
2006-08-16, 08:08:00,VALID,916.963,VALID,0,VALID,83.931,VALID,78.7911,VALID,22.7871,VALID,14,VALID,1.26181,
2006-08-16, 08:09:00,VALID,916.988,VALID,0,VALID,83.8865,VALID,82.2551,VALID,22.8332,VALID,20,VALID,1.10993,
2006-08-16, 08:10:00,VALID,916.991,VALID,0,VALID,83.1299,VALID,112.651,VALID,22.8611,VALID,23,VALID,1.65383,
2006-08-16, 08:11:00,VALID,917.011,VALID,0,VALID,83.5762,VALID,226.337,VALID,22.8614,VALID,21,VALID,1.70004,
2006-08-16, 08:12:00,VALID,917.025,VALID,0,VALID,83.8547,VALID,323.298,VALID,22.8549,VALID,25,VALID,1.13499,
2006-08-16, 08:13:00,VALID,917.037,VALID,0,VALID,83.8254,VALID,345.747,VALID,22.9125,VALID,34,VALID,1.48946,
2006-08-16, 08:14:00,VALID,917.041,VALID,0,VALID,82.7204,VALID,366.09,VALID,22.9453,VALID,44,VALID,1.88789,
2006-08-16, 08:15:00,VALID,917.039,VALID,0,VALID,82.0681,VALID,377.637,VALID,22.9321,VALID,32,VALID,2.02567,
2006-08-16, 08:16:00,VALID,917.046,VALID,0,VALID,82.3567,VALID,380.676,VALID,22.9283,VALID,46,VALID,1.54844,
2006-08-16, 08:17:00,VALID,917.047,VALID,0,VALID,82.6543,VALID,384.293,VALID,22.9744,VALID,37,VALID,1.67708,
2006-08-16, 08:18:00,VALID,917.054,VALID,0,VALID,82.5297,VALID,387.078,VALID,23.009,VALID,43,VALID,1.56686,
2006-08-16, 08:19:00,VALID,917.062,VALID,0,VALID,82.5259,VALID,390.355,VALID,23.0451,VALID,39,VALID,1.98958,
2006-08-16, 08:20:00,VALID,917.054,VALID,0,VALID,81.6574,VALID,393.853,VALID,23.0575,VALID,43,VALID,1.69762,
2006-08-16, 08:21:00,VALID,917.047,VALID,0,VALID,81.637,VALID,397.165,VALID,23.1177,VALID,31,VALID,1.54148,
2006-08-16, 08:22:00,VALID,917.04,VALID,0,VALID,81.8074,VALID,403.227,VALID,23.1735,VALID,29,VALID,1.33519,
2006-08-16, 08:23:00,VALID,917.028,VALID,0,VALID,82.3326,VALID,382.052,VALID,23.2445,VALID,39,VALID,1.56348,
2006-08-16, 08:24:00,VALID,917.021,VALID,0,VALID,81.4806,VALID,237.545,VALID,23.2539,VALID,11,VALID,2.04741,
2006-08-16, 08:25:00,VALID,917.016,VALID,0,VALID,83.1731,VALID,98.9133,VALID,23.2477,VALID,14,VALID,1.51199,
2006-08-16, 08:26:00,VALID,917.02,VALID,0,VALID,81.9905,VALID,79.4873,VALID,23.3018,VALID,34,VALID,1.7294,
2006-08-16, 08:27:00,VALID,917.022,VALID,0,VALID,81.3102,VALID,79.5382,VALID,23.3473,VALID,36,VALID,1.37016,
2006-08-16, 08:28:00,VALID,917.019,VALID,0,VALID,80.9542,VALID,79.8439,VALID,23.3987,VALID,36,VALID,2.20685,
2006-08-16, 08:29:00,VALID,917.035,VALID,0,VALID,80.7558,VALID,80.5231,VALID,23.4574,VALID,28,VALID,1.42378,
2006-08-16, 08:30:00,VALID,917.049,VALID,0,VALID,80.827,VALID,131.839,VALID,23.4917,VALID,10,VALID,1.91847,
2006-08-16, 08:31:00,VALID,917.064,VALID,0,VALID,80.7698,VALID,302.683,VALID,23.5469,VALID,26,VALID,1.28739,
2006-08-16, 08:32:00,VALID,917.06,VALID,0,VALID,79.4778,VALID,430.158,VALID,23.6051,VALID,36,VALID,2.67027,
2006-08-16, 08:33:00,VALID,917.075,VALID,0,VALID,80.0996,VALID,443.403,VALID,23.5637,VALID,17,VALID,2.65714,
2006-08-16, 08:34:00,VALID,917.071,VALID,0,VALID,79.6533,VALID,447.241,VALID,23.4406,VALID,4,VALID,3.13914,
2006-08-16, 08:35:00,VALID,917.07,VALID,0,VALID,80.6782,VALID,450.892,VALID,23.3346,VALID,16,VALID,2.49467,
2006-08-16, 08:36:00,VALID,917.07,VALID,0,VALID,81.4107,VALID,454.339,VALID,23.3437,VALID,351,VALID,1.54578,
2006-08-16, 08:37:00,VALID,917.061,VALID,0,VALID,80.9389,VALID,457.124,VALID,23.3978,VALID,17,VALID,1.24073,
2006-08-16, 08:38:00,VALID,917.068,VALID,0,VALID,81.5785,VALID,459.179,VALID,23.5114,VALID,21,VALID,1.57901,
2006-08-16, 08:39:00,VALID,917.081,VALID,0,VALID,80.2154,VALID,463.899,VALID,23.5801,VALID,8,VALID,1.80469,
2006-08-16, 08:40:00,VALID,917.086,VALID,0,VALID,80.9631,VALID,463.865,VALID,23.5725,VALID,358,VALID,1.52762,
2006-08-16, 08:41:00,VALID,917.097,VALID,0,VALID,80.874,VALID,468.263,VALID,23.6165,VALID,30,VALID,1.73266,
2006-08-16, 08:42:00,VALID,917.113,VALID,0,VALID,80.1683,VALID,472.22,VALID,23.6323,VALID,38,VALID,1.80995,
2006-08-16, 08:43:00,VALID,917.122,VALID,0,VALID,81.2454,VALID,475.803,VALID,23.6779,VALID,20,VALID,1.26944,
2006-08-16, 08:44:00,VALID,917.095,VALID,0,VALID,79.7271,VALID,479.301,VALID,23.7512,VALID,9,VALID,1.88579,
2006-08-16, 08:45:00,VALID,917.111,VALID,0,VALID,80.2217,VALID,482.51,VALID,23.8064,VALID,19,VALID,2.01823,
2006-08-16, 08:46:00,VALID,917.119,VALID,0,VALID,79.8631,VALID,482.867,VALID,23.8355,VALID,14,VALID,2.05523,
2006-08-16, 08:47:00,VALID,917.13,VALID,0,VALID,80.2446,VALID,488.64,VALID,23.8543,VALID,7,VALID,1.29334,
2006-08-16, 08:48:00,VALID,917.156,VALID,0,VALID,79.4384,VALID,494.652,VALID,23.9609,VALID,25,VALID,1.55202,
2006-08-16, 08:49:00,VALID,917.171,VALID,0,VALID,78.945,VALID,494.55,VALID,24.039,VALID,35,VALID,2.4881,
2006-08-16, 08:50:00,VALID,917.165,VALID,0,VALID,77.9417,VALID,492.716,VALID,23.9806,VALID,37,VALID,2.11062,
2006-08-16, 08:51:00,VALID,917.175,VALID,0,VALID,78.458,VALID,493.853,VALID,23.8966,VALID,32,VALID,3.2073,
2006-08-16, 08:52:00,VALID,917.19,VALID,0,VALID,79.5363,VALID,481.644,VALID,23.8032,VALID,28,VALID,2.02604,
2006-08-16, 08:53:00,VALID,917.208,VALID,0,VALID,79.3316,VALID,508.253,VALID,23.8088,VALID,29,VALID,2.00781,
2006-08-16, 08:54:00,VALID,917.22,VALID,0,VALID,79.2006,VALID,509.391,VALID,23.8243,VALID,48,VALID,1.64418,
2006-08-16, 08:55:00,VALID,917.219,VALID,0,VALID,78.9806,VALID,516.166,VALID,23.9183,VALID,39,VALID,1.76265,
2006-08-16, 08:56:00,VALID,917.215,VALID,0,VALID,78.9844,VALID,518.578,VALID,24.0141,VALID,25,VALID,1.78753,
2006-08-16, 08:57:00,VALID,917.215,VALID,0,VALID,79.2642,VALID,523.264,VALID,24.0884,VALID,15,VALID,2.15443,
2006-08-16, 08:58:00,VALID,917.221,VALID,0,VALID,78.032,VALID,524.3,VALID,24.007,VALID,31,VALID,2.01097,
2006-08-16, 08:59:00,VALID,917.233,VALID,0,VALID,78.1032,VALID,525.693,VALID,24.0822,VALID,26,VALID,1.61843,
2006-08-16, 09:00:00,VALID,917.236,VALID,0,VALID,77.7294,VALID,529.785,VALID,24.1846,VALID,26,VALID,2.02397,
2006-08-16, 09:01:00,VALID,917.249,VALID,0,VALID,78.1503,VALID,534.472,VALID,24.175,VALID,6,VALID,2.01079,
2006-08-16, 09:02:00,VALID,917.254,VALID,0,VALID,78.7912,VALID,537.766,VALID,24.1976,VALID,37,VALID,1.63951,
2006-08-16, 09:03:00,VALID,917.265,VALID,0,VALID,79.5338,VALID,543.387,VALID,24.3106,VALID,328,VALID,1.48351,
2006-08-16, 09:04:00,VALID,917.251,VALID,0,VALID,78.5813,VALID,538.734,VALID,24.4712,VALID,14,VALID,1.72266,
2006-08-16, 09:05:00,VALID,917.255,VALID,0,VALID,77.6391,VALID,544.932,VALID,24.6424,VALID,9,VALID,1.56808,
2006-08-16, 09:06:00,VALID,917.255,VALID,0,VALID,76.9702,VALID,551.215,VALID,24.7209,VALID,16,VALID,1.75545,
2006-08-16, 09:07:00,VALID,917.239,VALID,0,VALID,76.5722,VALID,558.975,VALID,24.6689,VALID,13,VALID,2.14789,
2006-08-16, 09:08:00,VALID,917.24,VALID,0,VALID,77.7624,VALID,561.25,VALID,24.6657,VALID,41,VALID,1.21214,
2006-08-16, 09:09:00,VALID,917.24,VALID,0,VALID,76.356,VALID,563.084,VALID,24.7593,VALID,6,VALID,1.81117,
2006-08-16, 09:10:00,VALID,917.224,VALID,0,VALID,76.5659,VALID,565.75,VALID,24.792,VALID,16,VALID,1.23889,
2006-08-16, 09:11:00,VALID,917.232,VALID,0,VALID,76.459,VALID,569.741,VALID,24.811,VALID,9,VALID,2.34157,
2006-08-16, 09:12:00,VALID,917.223,VALID,0,VALID,76.6422,VALID,574.682,VALID,24.727,VALID,332,VALID,1.92436,
2006-08-16, 09:13:00,VALID,917.241,VALID,0,VALID,76.969,VALID,575.905,VALID,24.7755,VALID,329,VALID,1.5928,
2006-08-16, 09:14:00,VALID,917.235,VALID,0,VALID,75.9644,VALID,575.09,VALID,24.8753,VALID,325,VALID,1.82889,
2006-08-16, 09:15:00,VALID,917.235,VALID,0,VALID,75.7647,VALID,581.61,VALID,24.9829,VALID,334,VALID,1.57933,
2006-08-16, 09:16:00,VALID,917.255,VALID,0,VALID,74.8594,VALID,584.956,VALID,25.0879,VALID,40,VALID,1.72042,
2006-08-16, 09:17:00,VALID,917.251,VALID,0,VALID,74.7424,VALID,587.944,VALID,25.0756,VALID,20,VALID,2.10804,
2006-08-16, 09:18:00,VALID,917.268,VALID,0,VALID,75.1582,VALID,591.527,VALID,24.9519,VALID,30,VALID,1.88154,
2006-08-16, 09:19:00,VALID,917.275,VALID,0,VALID,75.0806,VALID,593.633,VALID,24.9587,VALID,34,VALID,1.75595,
2006-08-16, 09:21:00,VALID,917.318,VALID,0,VALID,73.9832,VALID,597.335,VALID,24.9584,VALID,17,VALID,1.2153,
2006-08-16, 09:22:00,VALID,917.334,VALID,0,VALID,74.2147,VALID,600.663,VALID,25.0036,VALID,26,VALID,1.74355,
2006-08-16, 09:23:00,VALID,917.341,VALID,0,VALID,74.2185,VALID,603.465,VALID,24.981,VALID,47,VALID,1.69313,
2006-08-16, 09:24:00,VALID,917.341,VALID,0,VALID,74.5796,VALID,609,VALID,25.0201,VALID,24,VALID,1.5465,
2006-08-16, 09:25:00,VALID,917.351,VALID,0,VALID,73.9514,VALID,611.446,VALID,25.0841,VALID,39,VALID,1.36852,
2006-08-16, 09:26:00,VALID,917.361,VALID,0,VALID,72.512,VALID,611.65,VALID,25.1942,VALID,48,VALID,1.86086,
2006-08-16, 09:27:00,VALID,917.371,VALID,0,VALID,72.2933,VALID,615.385,VALID,25.2424,VALID,51,VALID,1.10007,
2006-08-16, 09:28:00,VALID,917.38,VALID,0,VALID,72.0796,VALID,618.238,VALID,25.3355,VALID,60,VALID,1.5,
2006-08-16, 09:29:00,VALID,917.392,VALID,0,VALID,70.7381,VALID,620.615,VALID,25.4356,VALID,54,VALID,2.03032,
2006-08-16, 09:30:00,VALID,917.396,VALID,0,VALID,70.9098,VALID,623.146,VALID,25.4295,VALID,40,VALID,1.8254,
2006-08-16, 09:31:00,VALID,917.409,VALID,0,VALID,71.7058,VALID,624.962,VALID,25.3807,VALID,23,VALID,1.83147,
2006-08-16, 09:32:00,VALID,917.416,VALID,0,VALID,71.9003,VALID,630.277,VALID,25.3419,VALID,30,VALID,1.52992,
2006-08-16, 09:33:00,VALID,917.42,VALID,0,VALID,71.1628,VALID,632.06,VALID,25.3254,VALID,33,VALID,1.83185,
2006-08-16, 09:34:00,VALID,917.435,VALID,0,VALID,72.8693,VALID,634.455,VALID,25.3771,VALID,13,VALID,1.34684,
2006-08-16, 09:35:00,VALID,917.432,VALID,0,VALID,72.3886,VALID,636.458,VALID,25.5258,VALID,38,VALID,0.977344,
2006-08-16, 09:36:00,VALID,917.447,VALID,0,VALID,71.1297,VALID,637.664,VALID,25.7135,VALID,51,VALID,1.18073,
2006-08-16, 09:37:00,VALID,917.455,VALID,0,VALID,70.0095,VALID,631.143,VALID,25.8127,VALID,50,VALID,2.16606,
2006-08-16, 09:38:00,VALID,917.441,VALID,0,VALID,71.1819,VALID,636.119,VALID,25.7455,VALID,27,VALID,1.88706,
2006-08-16, 09:39:00,VALID,917.427,VALID,0,VALID,71.0013,VALID,638.666,VALID,25.7507,VALID,49,VALID,1.67351,
2006-08-16, 09:40:00,VALID,917.413,VALID,0,VALID,70.3235,VALID,644.049,VALID,25.7888,VALID,52,VALID,1.52827,
2006-08-16, 09:41:00,VALID,917.412,VALID,0,VALID,70.6529,VALID,648.311,VALID,25.8802,VALID,22,VALID,1.62035,
2006-08-16, 09:42:00,VALID,917.406,VALID,0,VALID,70.1188,VALID,652.047,VALID,25.9552,VALID,49,VALID,1.76225,
2006-08-16, 09:43:00,VALID,917.415,VALID,0,VALID,70.1264,VALID,660.045,VALID,25.9617,VALID,49,VALID,1.76803,
2006-08-16, 09:44:00,VALID,917.401,VALID,0,VALID,68.5954,VALID,666.396,VALID,25.9785,VALID,18,VALID,0.984738,
2006-08-16, 09:45:00,VALID,917.413,VALID,0,VALID,68.8447,VALID,669.826,VALID,26.1006,VALID,49,VALID,1.1755,
2006-08-16, 09:46:00,VALID,917.418,VALID,0,VALID,67.3187,VALID,670.947,VALID,26.12,VALID,48,VALID,1.95241,
2006-08-16, 09:47:00,VALID,917.414,VALID,0,VALID,68.3195,VALID,674.241,VALID,26.0095,VALID,37,VALID,1.77289,
2006-08-16, 09:48:00,VALID,917.419,VALID,0,VALID,69.1994,VALID,675.82,VALID,25.9413,VALID,9,VALID,1.21484,
2006-08-16, 09:49:00,VALID,917.443,VALID,0,VALID,68.4225,VALID,667.975,VALID,26.0224,VALID,54,VALID,1.22619,
2006-08-16, 09:50:00,VALID,917.436,VALID,0,VALID,67.6481,VALID,655.579,VALID,26.1704,VALID,85,VALID,0.589844,
2006-08-16, 09:51:00,VALID,917.429,VALID,0,VALID,68.0575,VALID,670.624,VALID,26.3291,VALID,268,VALID,1.21418,
2006-08-16, 09:52:00,VALID,917.421,VALID,0,VALID,67.7892,VALID,679.862,VALID,26.7011,VALID,319,VALID,1.01601,
2006-08-16, 09:53:00,VALID,917.414,VALID,0,VALID,65.4126,VALID,702.718,VALID,26.988,VALID,77,VALID,0.941778,
2006-08-16, 09:54:00,VALID,917.408,VALID,0,VALID,65.9289,VALID,712.651,VALID,27.1497,VALID,42,VALID,1.71328,
2006-08-16, 09:55:00,VALID,917.399,VALID,0,VALID,67.1,VALID,710.919,VALID,27.1367,VALID,9,VALID,1.90195,
2006-08-16, 09:56:00,VALID,917.413,VALID,0,VALID,67.4408,VALID,698.642,VALID,26.9047,VALID,2,VALID,2.06159,
2006-08-16, 09:57:00,VALID,917.417,VALID,0,VALID,68.8841,VALID,658.381,VALID,26.7033,VALID,341,VALID,1.57475,
2006-08-16, 09:58:00,VALID,917.412,VALID,0,VALID,68.5993,VALID,571.813,VALID,26.6128,VALID,323,VALID,2.08993,
2006-08-16, 09:59:00,VALID,917.418,VALID,0,VALID,67.2933,VALID,418.832,VALID,26.4706,VALID,292,VALID,2.19531,
2006-08-16, 10:00:00,VALID,917.43,VALID,0,VALID,68.6743,VALID,459.365,VALID,26.4221,VALID,339,VALID,2.06172,
2006-08-16, 10:01:00,VALID,917.453,VALID,0,VALID,69.7424,VALID,604.45,VALID,26.3927,VALID,336,VALID,1.70122,
2006-08-16, 10:02:00,VALID,917.456,VALID,0,VALID,69.9459,VALID,575.124,VALID,26.4771,VALID,282,VALID,1.75462,
2006-08-16, 10:03:00,VALID,917.461,VALID,0,VALID,68.7951,VALID,523.145,VALID,26.6807,VALID,327,VALID,2.08505,
2006-08-16, 10:04:00,VALID,917.451,VALID,0,VALID,68.4174,VALID,524.64,VALID,26.69,VALID,286,VALID,2.39001,
2006-08-16, 10:05:00,VALID,917.438,VALID,0,VALID,68.5573,VALID,768.247,VALID,26.8623,VALID,278,VALID,2.60385,
2006-08-16, 10:06:00,VALID,917.446,VALID,0,VALID,67.0097,VALID,768.943,VALID,27.0711,VALID,314,VALID,1.93806,
2006-08-16, 10:07:00,VALID,917.453,VALID,0,VALID,66.1768,VALID,765.734,VALID,27.1002,VALID,340,VALID,1.70385,
2006-08-16, 10:08:00,VALID,917.445,VALID,0,VALID,66.468,VALID,762.643,VALID,27.02,VALID,358,VALID,1.50223,
2006-08-16, 10:09:00,VALID,917.466,VALID,0,VALID,66.257,VALID,765.326,VALID,26.9289,VALID,50,VALID,1.85423,
2006-08-16, 10:10:00,VALID,917.478,VALID,0,VALID,65.3516,VALID,758.958,VALID,26.903,VALID,78,VALID,0.988735,
2006-08-16, 10:11:00,VALID,917.48,VALID,0,VALID,65.0705,VALID,759.586,VALID,27.0607,VALID,71,VALID,0.375694,
2006-08-16, 10:12:00,VALID,917.464,VALID,0,VALID,65.4838,VALID,764.137,VALID,27.3293,VALID,351,VALID,1.10861,
2006-08-16, 10:13:00,VALID,917.448,VALID,0,VALID,64.6001,VALID,764.63,VALID,27.4482,VALID,296,VALID,3.00729,
2006-08-16, 10:14:00,VALID,917.443,VALID,0,VALID,64.5149,VALID,751.86,VALID,27.3552,VALID,287,VALID,2.06797,
2006-08-16, 10:15:00,VALID,917.422,VALID,0,VALID,64.614,VALID,760.181,VALID,27.3484,VALID,335,VALID,2.53795,
2006-08-16, 10:16:00,VALID,917.395,VALID,0,VALID,66.4426,VALID,764.698,VALID,27.1221,VALID,297,VALID,2.66367,
2006-08-16, 10:17:00,VALID,917.403,VALID,0,VALID,65.6936,VALID,773.545,VALID,27.009,VALID,311,VALID,1.63601,
2006-08-16, 10:18:00,VALID,917.387,VALID,0,VALID,66.566,VALID,793.786,VALID,27.0746,VALID,13,VALID,1.47148,
2006-08-16, 10:19:00,VALID,917.383,VALID,0,VALID,64.7132,VALID,794.941,VALID,27.1529,VALID,342,VALID,1.43471,
2006-08-16, 10:20:00,VALID,917.363,VALID,0,VALID,65.5156,VALID,799.016,VALID,27.1493,VALID,36,VALID,3.04524,
2006-08-16, 10:21:00,VALID,917.367,VALID,0,VALID,66.8393,VALID,789.761,VALID,27.1141,VALID,10,VALID,1.64983,
2006-08-16, 10:22:00,VALID,917.362,VALID,0,VALID,65.2282,VALID,782.086,VALID,27.2082,VALID,37,VALID,1.9377,
2006-08-16, 10:23:00,VALID,917.33,VALID,0,VALID,66.3727,VALID,766.464,VALID,27.233,VALID,319,VALID,2.02668,
2006-08-16, 10:24:00,VALID,917.332,VALID,0,VALID,65.2664,VALID,773.579,VALID,27.3084,VALID,292,VALID,2.95476,
2006-08-16, 10:25:00,VALID,917.347,VALID,0,VALID,64.9612,VALID,787.384,VALID,27.4079,VALID,351,VALID,1.8948,
2006-08-16, 10:26:00,VALID,917.331,VALID,0,VALID,63.5853,VALID,796.027,VALID,27.3322,VALID,359,VALID,2.61128,
2006-08-16, 10:27:00,VALID,917.309,VALID,0,VALID,62.947,VALID,805.537,VALID,27.0869,VALID,13,VALID,1.57422,
2006-08-16, 10:28:00,VALID,917.272,VALID,0,VALID,66.1527,VALID,831.857,VALID,26.9357,VALID,10,VALID,2.08389,
2006-08-16, 10:29:00,VALID,917.253,VALID,0,VALID,66.1273,VALID,851.249,VALID,26.871,VALID,39,VALID,1.6984,
2006-08-16, 10:30:00,VALID,917.245,VALID,0,VALID,66.8266,VALID,870.862,VALID,26.9385,VALID,8,VALID,1.74089,
2006-08-16, 10:31:00,VALID,917.238,VALID,0,VALID,67.6112,VALID,681.407,VALID,26.9993,VALID,9,VALID,1.66043,
2006-08-16, 10:32:00,VALID,917.237,VALID,0,VALID,66.6779,VALID,860.86,VALID,27.144,VALID,334,VALID,2.19754,
2006-08-16, 10:33:00,VALID,917.237,VALID,0,VALID,65.7839,VALID,752.336,VALID,27.2061,VALID,28,VALID,1.83903,
2006-08-16, 10:34:00,VALID,917.253,VALID,0,VALID,64.525,VALID,673.392,VALID,27.2539,VALID,3,VALID,1.50591,
2006-08-16, 10:35:00,VALID,917.252,VALID,0,VALID,64.2504,VALID,863.747,VALID,27.1573,VALID,16,VALID,1.99328,
2006-08-16, 10:36:00,VALID,917.244,VALID,0,VALID,64.127,VALID,859.672,VALID,27.0927,VALID,14,VALID,2.26524,
2006-08-16, 10:37:00,VALID,917.228,VALID,0,VALID,63.4009,VALID,758.262,VALID,27.0125,VALID,23,VALID,1.54278,
2006-08-16, 10:38:00,VALID,917.182,VALID,0,VALID,64.2033,VALID,638.275,VALID,26.9447,VALID,329,VALID,1.95879,
2006-08-16, 10:39:00,VALID,917.181,VALID,0,VALID,64.2733,VALID,889.507,VALID,26.9027,VALID,14,VALID,1.91815,
2006-08-16, 10:40:00,VALID,917.167,VALID,0,VALID,64.0189,VALID,873.528,VALID,26.9537,VALID,27,VALID,1.78739,
2006-08-16, 10:41:00,VALID,917.142,VALID,0,VALID,65.2308,VALID,870.573,VALID,27.0643,VALID,341,VALID,1.44277,
2006-08-16, 10:42:00,VALID,917.118,VALID,0,VALID,64.3165,VALID,871.949,VALID,27.3613,VALID,11,VALID,1.07994,
2006-08-16, 10:43:00,VALID,917.09,VALID,0,VALID,63.4696,VALID,881.305,VALID,27.5207,VALID,312,VALID,2.17522,
2006-08-16, 10:44:00,VALID,917.104,VALID,0,VALID,63.8943,VALID,890.865,VALID,27.6328,VALID,358,VALID,1.63765,
2006-08-16, 10:45:00,VALID,917.106,VALID,0,VALID,61.5012,VALID,886.586,VALID,27.6425,VALID,27,VALID,1.97619,
2006-08-16, 10:46:00,VALID,917.107,VALID,0,VALID,61.4414,VALID,891.918,VALID,27.5455,VALID,59,VALID,2.15854,
2006-08-16, 10:47:00,VALID,917.099,VALID,0,VALID,61.3498,VALID,888.454,VALID,27.5933,VALID,65,VALID,1.11808,
2006-08-16, 10:48:00,VALID,917.076,VALID,0,VALID,60.4177,VALID,776.024,VALID,27.7801,VALID,84,VALID,1.39996,